SQ7RAF-15 Weather Reports


time (UTC)temp
C
wind
direction
speed
KPH
gust
KPH
rain 1hr
cm
rain 24hr
cm
rain mn
cm
humidity
%
barometer
mb
20260506165520 22 324 1.6 4.8 0.00 0.00 0.00 51 1004.7
20260506165048 22 316 1.6 4.8 0.00 0.00 0.00 50 1004.7
20260506164528 22 323 1.6 3.2 0.00 0.00 0.00 50 1004.6
20260506164040 22 320 1.6 3.2 0.00 0.00 0.00 50 1004.7
20260506163520 22 320 1.6 4.8 0.00 0.00 0.00 50 1004.8
20260506163032 22 325 1.6 3.2 0.00 0.00 0.00 51 1004.8
20260506162544 22 318 1.6 8.0 0.00 0.00 0.00 50 1004.8
20260506162024 22 322 1.6 3.2 0.00 0.00 0.00 50 1004.8
20260506161536 22 323 3.2 4.8 0.00 0.00 0.00 50 1004.8
20260506161048 22 318 3.2 4.8 0.00 0.00 0.00 49 1004.8
20260506160528 22 311 3.2 9.7 0.00 0.00 0.00 49 1004.8
20260506160040 22 311 3.2 8.0 0.00 0.00 0.00 50 1004.8
20260506155520 22 319 1.6 3.2 0.00 0.00 0.00 49 1004.9
20260506155032 22 322 1.6 8.0 0.00 0.00 0.00 48 1004.9
20260506154544 22 310 3.2 8.0 0.00 0.00 0.00 49 1005.0
20260506154024 23 258 3.2 4.8 0.00 0.00 0.00 49 1005.0
20260506153536 23 311 3.2 9.7 0.00 0.00 0.00 48 1005.0
20260506153049 23 325 3.2 11.3 0.00 0.00 0.00 48 1004.9
20260506152528 23 315 3.2 8.0 0.00 0.00 0.00 48 1005.0
20260506152041 23 314 3.2 12.9 0.00 0.00 0.00 48 1004.9
20260506151520 23 321 3.2 8.0 0.00 0.00 0.00 48 1005.0
20260506151032 23 296 3.2 9.7 0.00 0.00 0.00 47 1005.1
20260506150544 23 328 3.2 4.8 0.00 0.00 0.00 48 1005.0
20260506150025 23 271 3.2 9.7 0.00 0.00 0.00 47 1005.1
20260506145536 23 318 3.2 11.3 0.00 0.00 0.00 47 1005.1
20260506145048 23 299 4.8 12.9 0.00 0.00 0.00 46 1005.1
20260506144528 24 308 4.8 9.7 0.00 0.00 0.00 45 1005.0
20260506144040 24 328 1.6 4.8 0.00 0.00 0.00 45 1005.0
20260506143520 24 293 3.2 9.7 0.00 0.00 0.00 45 1005.0
20260506143032 24 268 3.2 8.0 0.00 0.00 0.00 45 1005.0
20260506142544 25 336 3.2 8.0 0.00 0.00 0.00 45 1005.1
20260506142044 25 306 3.2 8.0 0.00 0.00 0.00 44 1005.1
20260506141520 25 300 3.2 9.7 0.00 0.00 0.00 45 1005.1
20260506141033 25 275 4.8 9.7 0.00 0.00 0.00 45 1005.1
20260506140531 24 307 3.2 16.1 0.00 0.00 0.00 47 1005.1
20260506140026 24 287 4.8 11.3 0.00 0.00 0.00 47 1005.1
20260506135536 25 305 3.2 9.7 0.00 0.00 0.00 47 1005.1
20260506135032 24 321 3.2 9.7 0.00 0.00 0.00 48 1005.1
20260506134544 23 304 4.8 11.3 0.00 0.00 0.00 49 1005.1
20260506134024 23 322 3.2 9.7 0.00 0.00 0.00 50 1005.1
20260506133536 23 269 3.2 8.0 0.00 0.00 0.00 49 1005.1
20260506133048 23 272 3.2 9.7 0.00 0.00 0.00 50 1005.1
20260506132528 23 312 3.2 4.8 0.00 0.00 0.00 50 1005.1
20260506132041 24 331 4.8 12.9 0.00 0.00 0.00 49 1005.0
20260506131520 24 310 6.4 11.3 0.00 0.00 0.00 49 1005.0
20260506131033 23 303 3.2 8.0 0.00 0.00 0.00 50 1005.0
20260506130544 23 286 4.8 14.5 0.00 0.00 0.00 50 1005.1
20260506130025 25 299 4.8 11.3 0.00 0.00 0.00 48 1005.1
20260506125536 24 185 4.8 11.3 0.00 0.00 0.00 49 1005.1
20260506125048 25 292 4.8 9.7 0.00 0.00 0.00 49 1005.2
20260506124528 25 290 4.8 9.7 0.00 0.00 0.00 48 1005.1
20260506124040 25 283 3.2 9.7 0.00 0.00 0.00 48 1005.1
20260506123520 23 289 1.6 4.8 0.00 0.00 0.00 51 1005.1
20260506123048 23 286 3.2 12.9 0.00 0.00 0.00 52 1005.2
20260506122528 23 354 3.2 9.7 0.00 0.00 0.00 52 1005.2
20260506122041 24 248 4.8 14.5 0.00 0.00 0.00 51 1005.2
20260506121537 24 281 4.8 11.3 0.00 0.00 0.00 50 1005.3
20260506121033 23 172 6.4 20.9 0.00 0.00 0.00 52 1005.3
20260506120544 23 183 6.4 14.5 0.00 0.00 0.00 53 1005.3
20260506120025 23 302 3.2 4.8 0.00 0.00 0.00 53 1005.3
20260506115524 24 291 3.2 9.7 0.00 0.00 0.00 52 1005.2
20260506115032 23 208 3.2 9.7 0.00 0.00 0.00 53 1005.2
20260506114528 22 355 4.8 14.5 0.00 0.00 0.00 56 1005.3
20260506114040 22 201 3.2 8.0 0.00 0.00 0.00 56 1005.3
20260506113552 22 331 4.8 11.3 0.00 0.00 0.00 56 1005.4
20260506113032 22 294 4.8 9.7 0.00 0.00 0.00 57 1005.4
20260506112544 22 290 3.2 9.7 0.00 0.00 0.00 56 1005.3
20260506112040 22 301 3.2 9.7 0.00 0.00 0.00 57 1005.3
20260506111520 22 302 4.8 11.3 0.00 0.00 0.00 58 1005.3
20260506111032 22 313 4.8 9.7 0.00 0.00 0.00 57 1005.3
20260506110544 22 309 4.8 11.3 0.00 0.00 0.00 58 1005.3
20260506110024 22 299 3.2 8.0 0.00 0.00 0.00 57 1005.3
20260506105520 22 252 4.8 12.9 0.00 0.00 0.00 57 1005.4
20260506105032 22 268 3.2 8.0 0.00 0.00 0.00 58 1005.4
20260506104544 21 304 4.8 9.7 0.00 0.00 0.00 58 1005.4
20260506104040 22 290 3.2 8.0 0.00 0.00 0.00 58 1005.5
20260506103520 22 306 3.2 9.7 0.00 0.00 0.00 57 1005.3
20260506103032 22 276 3.2 8.0 0.00 0.00 0.00 56 1005.2
20260506102544 23 312 3.2 8.0 0.00 0.00 0.00 55 1005.2
20260506102024 23 247 3.2 8.0 0.00 0.00 0.00 55 1005.1
20260506101536 22 304 3.2 8.0 0.00 0.00 0.00 56 1005.1
20260506101032 22 310 3.2 11.3 0.00 0.00 0.00 55 1005.2
20260506100528 23 269 3.2 9.7 0.00 0.00 0.00 55 1005.2
20260506100040 23 310 3.2 11.3 0.00 0.00 0.00 54 1005.1
20260506095520 22 310 3.2 12.9 0.00 0.00 0.00 56 1005.1
20260506095048 23 311 4.8 12.9 0.00 0.00 0.00 54 1005.1
20260506094549 23 276 3.2 11.3 0.00 0.00 0.00 53 1005.2
20260506094040 23 308 3.2 9.7 0.00 0.00 0.00 54 1005.2
20260506093520 23 161 3.2 9.7 0.00 0.00 0.00 54 1005.1
20260506093048 22 324 4.8 9.7 0.00 0.00 0.00 55 1004.9
20260506092528 21 317 3.2 8.0 0.00 0.00 0.00 57 1005.0
20260506092040 22 292 3.2 8.0 0.00 0.00 0.00 57 1005.0
20260506091520 21 295 4.8 11.3 0.00 0.00 0.00 56 1004.9
20260506091032 22 294 4.8 9.7 0.00 0.00 0.00 57 1005.0
20260506090544 22 282 3.2 9.7 0.00 0.00 0.00 57 1005.0
20260506090024 22 319 3.2 12.9 0.00 0.00 0.00 57 1005.0
20260506085536 21 262 4.8 11.3 0.00 0.00 0.00 58 1005.0
20260506085048 21 264 3.2 11.3 0.00 0.00 0.00 59 1004.9
20260506084529 21 296 3.2 11.3 0.00 0.00 0.00 59 1005.0
20260506084040 21 320 4.8 11.3 0.00 0.00 0.00 58 1004.9
20260506083520 21 310 3.2 9.7 0.00 0.00 0.00 60 1005.0
20260506083032 21 322 3.2 9.7 0.00 0.00 0.00 60 1005.0
20260506082602 21 293 3.2 9.7 0.00 0.00 0.00 60 1004.9
20260506082041 21 227 3.2 9.7 0.00 0.00 0.00 60 1005.0
20260506081520 21 300 3.2 9.7 0.00 0.00 0.00 61 1005.0
20260506081104 20 244 4.8 14.5 0.00 0.00 0.00 62 1005.0
20260506080544 19 305 3.2 4.8 0.00 0.00 0.00 65 1005.1
20260506073049 18 234 4.8 11.3 0.00 0.00 0.00 67 1004.9
20260506072529 18 198 4.8 14.5 0.00 0.00 0.00 67 1004.9
20260506072041 18 174 6.4 17.7 0.00 0.00 0.00 67 1004.9
20260506071537 18 193 6.4 17.7 0.00 0.00 0.00 66 1004.9
20260506071048 18 177 4.8 11.3 0.00 0.00 0.00 66 1004.9
20260506070544 18 230 4.8 12.9 0.00 0.00 0.00 66 1005.0
20260506062024 17 199 1.6 8.0 0.00 0.00 0.00 69 1004.4
20260506061520 17 20 3.2 9.7 0.00 0.00 0.00 68 1004.5
20260506061032 17 192 6.4 14.5 0.00 0.00 0.00 68 1004.4
20260506060529 17 175 4.8 11.3 0.00 0.00 0.00 68 1004.4
20260506051048 17 162 4.8 12.9 0.00 0.00 0.00 68 1004.5
20260506050600 16 243 1.6 4.8 0.00 0.00 0.00 69 1004.4
20260506045032 15 213 3.2 9.7 0.00 0.00 0.00 71 1004.6
20260506044544 15 181 1.6 8.0 0.00 0.00 0.00 72 1004.6
20260506044024 15 216 3.2 9.7 0.00 0.00 0.00 72 1004.6
20260506043536 15 164 1.6 4.8 0.00 0.00 0.00 73 1004.7
20260506043050 14 262 3.2 8.0 0.00 0.00 0.00 74 1004.7
20260506042528 13 190 3.2 8.0 0.00 0.00 0.00 76 1004.9
20260506042041 12 200 3.2 9.7 0.00 0.00 0.00 78 1004.7
20260506041520 12 353 1.6 1.6 0.00 0.00 0.00 81 1004.6
20260506041033 11 348 0.0 3.2 0.00 0.00 0.00 83 1004.7
20260506040544 11 10 1.6 3.2 0.00 0.00 0.00 85 1004.6
20260506040025 10 336 0.0 1.6 0.00 0.00 0.00 88 1004.6
20260506035536 9 349 0.0 1.6 0.00 0.00 0.00 91 1004.5
20260506035048 8 0.0 0.0 0.00 0.00 0.00 92 1004.6
20260506034528 8 0.0 0.0 0.00 0.00 0.00 92 1004.6
20260506034040 8 0.0 0.0 0.00 0.00 0.00 92 1004.6
20260506033520 8 0.0 0.0 0.00 0.00 0.00 93 1004.6
20260506033032 8 0.0 0.0 0.00 0.00 0.00 93 1004.6
20260506032545 8 0.0 0.0 0.00 0.00 0.00 93 1004.8
20260506032024 8 0.0 0.0 0.00 0.00 0.00 93 1004.7
20260506031537 8 0.0 0.0 0.00 0.00 0.00 93 1004.7
20260506031048 8 0.0 0.0 0.00 0.00 0.00 93 1004.8
20260506030529 8 0.0 0.0 0.00 0.00 0.00 93 1004.7
20260506030040 8 0.0 0.0 0.00 0.00 0.00 93 1004.8
20260506025521 8 0.0 0.0 0.00 0.00 0.00 93 1004.9
20260506025032 8 0.0 0.0 0.00 0.00 0.00 93 1004.8
20260506024544 8 325 0.0 1.6 0.00 0.00 0.00 93 1004.9
20260506024024 8 0.0 0.0 0.00 0.00 0.00 93 1004.7
20260506023536 9 0.0 0.0 0.00 0.00 0.00 93 1004.8
20260506023048 9 331 0.0 1.6 0.00 0.00 0.00 93 1004.8
20260506022528 9 0.0 0.0 0.00 0.00 0.00 93 1004.8
20260506022024 9 0.0 0.0 0.00 0.00 0.00 93 1004.8
20260506021536 9 0.0 0.0 0.00 0.00 0.00 94 1004.8
20260506021049 9 0.0 0.0 0.00 0.00 0.00 94 1005.0
20260506020544 9 0.0 0.0 0.00 0.00 0.00 94 1005.0
20260506020024 9 0.0 0.0 0.00 0.00 0.00 94 1004.9
20260506015536 9 0.0 0.0 0.00 0.00 0.00 94 1005.1
20260506015048 9 0.0 0.0 0.00 0.00 0.00 94 1005.0
20260506014528 10 0.0 0.0 0.00 0.00 0.00 94 1005.0
20260506014040 10 0.0 0.0 0.00 0.00 0.00 94 1005.0
20260506013520 10 0.0 0.0 0.00 0.00 0.00 94 1005.0
20260506013032 10 0.0 0.0 0.00 0.00 0.00 94 1005.0
20260506012549 10 0.0 0.0 0.00 0.00 0.00 94 1005.0
20260506012024 10 0.0 0.0 0.00 0.00 0.00 94 1005.0
20260506011537 10 0.0 0.0 0.00 0.00 0.00 94 1005.0
20260506011048 10 0.0 0.0 0.00 0.00 0.00 94 1004.9
20260506010529 10 0.0 0.0 0.00 0.00 0.00 94 1005.1
20260506010040 10 0.0 0.0 0.00 0.00 0.00 94 1005.1
20260506005521 10 0.0 0.0 0.00 0.00 0.00 94 1005.1
20260506005032 10 0.0 0.0 0.00 0.00 0.00 94 1005.1
20260506004544 11 0.0 0.0 0.00 0.00 0.00 94 1005.1
20260506004024 11 0.0 0.0 0.00 0.00 0.00 94 1005.2
20260506003536 11 337 0.0 1.6 0.00 0.00 0.00 93 1005.2
20260506003048 11 0.0 0.0 0.00 0.00 0.00 93 1005.3
20260506002528 11 0.0 0.0 0.00 0.00 0.00 93 1005.2
20260506002041 11 0.0 0.0 0.00 0.00 0.00 93 1005.2
20260506001520 11 0.0 0.0 0.00 0.00 0.00 93 1005.2
20260506001033 11 0.0 0.0 0.00 0.00 0.00 92 1005.2
20260506000544 11 0.0 0.0 0.00 0.00 0.00 92 1005.2
20260506000025 11 0.0 0.0 0.00 0.00 0.00 92 1005.2
20260505235536 11 0.0 0.0 0.00 0.00 0.00 92 1005.2
20260505235048 11 0.0 0.0 0.00 0.00 0.00 92 1005.3
20260505234528 12 322 0.0 1.6 0.00 0.00 0.00 91 1005.3
20260505234040 12 0.0 0.0 0.00 0.00 0.00 91 1005.4
20260505233520 12 0.0 0.0 0.00 0.00 0.00 91 1005.2
20260505233032 12 0.0 0.0 0.00 0.00 0.00 91 1005.4
20260505232544 12 327 0.0 1.6 0.00 0.00 0.00 91 1005.3
20260505232024 12 322 0.0 1.6 0.00 0.00 0.00 91 1005.4
20260505231536 12 332 0.0 1.6 0.00 0.00 0.00 91 1005.6
20260505230528 12 28 1.6 3.2 0.00 0.00 0.00 90 1005.6
20260505230040 12 307 1.6 3.2 0.00 0.00 0.00 90 1005.5
20260505225521 13 332 0.0 1.6 0.00 0.00 0.00 90 1005.5
20260505225032 13 324 0.0 1.6 0.00 0.00 0.00 90 1005.6
20260505224544 13 319 0.0 1.6 0.00 0.00 0.00 89 1005.6
20260505224024 13 334 0.0 1.6 0.00 0.00 0.00 89 1005.6
20260505223536 13 0.0 0.0 0.00 0.00 0.00 89 1005.6
20260505223016 13 0.0 0.0 0.00 0.00 0.00 88 1005.7
20260505222528 13 330 0.0 1.6 0.00 0.00 0.00 88 1005.7
20260505222040 13 318 0.0 1.6 0.00 0.00 0.00 88 1005.6
20260505221520 13 336 0.0 1.6 0.00 0.00 0.00 88 1005.6
20260505221032 14 319 0.0 1.6 0.00 0.00 0.00 87 1005.7
20260505220604 14 316 0.0 1.6 0.00 0.00 0.00 87 1005.6
20260505220024 14 0.0 0.0 0.00 0.00 0.00 87 1005.5
20260505215536 14 311 0.0 3.2 0.00 0.00 0.00 87 1005.6
20260505215016 14 333 0.0 1.6 0.00 0.00 0.00 87 1005.6
20260505214528 15 0.0 0.0 0.00 0.00 0.00 87 1005.7
20260505214040 14 0.0 0.0 0.00 0.00 0.00 86 1005.6
20260505213520 14 0.0 0.0 0.00 0.00 0.00 86 1005.6
20260505213032 14 330 0.0 1.6 0.00 0.00 0.00 86 1005.5
20260505212544 14 311 1.6 1.6 0.00 0.00 0.00 85 1005.6
20260505212024 15 296 1.6 3.2 0.00 0.00 0.00 84 1005.7
20260505211532 15 348 0.0 3.2 0.00 0.00 0.00 84 1005.6
20260505211034 15 326 1.6 1.6 0.00 0.00 0.00 85 1005.6
20260505210544 15 315 1.6 1.6 0.00 0.00 0.00 84 1005.6
20260505210024 15 319 0.0 1.6 0.00 0.00 0.00 82 1005.6
20260505205536 15 0.0 0.0 0.00 0.00 0.00 82 1005.6
20260505205016 15 327 0.0 1.6 0.00 0.00 0.00 82 1005.7
20260505204528 16 0.0 0.0 0.00 0.00 0.00 81 1005.6
20260505204040 16 0.0 0.0 0.00 0.00 0.00 80 1005.6
20260505203520 16 0.0 0.0 0.00 0.00 0.00 78 1005.6
20260505203032 16 322 1.6 1.6 0.00 0.00 0.00 79 1005.7
20260505202545 16 323 1.6 3.2 0.00 0.00 0.00 77 1005.6
20260505202024 16 311 0.0 1.6 0.00 0.00 0.00 76 1005.6
20260505201537 17 318 0.0 1.6 0.00 0.00 0.00 76 1005.6
20260505201016 17 315 0.0 1.6 0.00 0.00 0.00 75 1005.5
20260505200529 17 314 0.0 1.6 0.00 0.00 0.00 72 1005.5
20260505200040 17 320 0.0 3.2 0.00 0.00 0.00 71 1005.5
20260505195521 17 323 1.6 3.2 0.00 0.00 0.00 69 1005.5
20260505195032 16 318 1.6 1.6 0.00 0.00 0.00 65 1005.4
20260505194544 17 315 0.0 1.6 0.00 0.00 0.00 62 1005.3
20260505194024 17 317 1.6 8.0 0.00 0.00 0.00 62 1005.5
20260505193536 17 316 1.6 4.8 0.00 0.00 0.00 60 1005.4
20260505193016 16 334 1.6 4.8 0.00 0.00 0.00 59 1005.3
20260505192529 16 320 1.6 1.6 0.00 0.00 0.00 60 1005.4
20260505192040 16 322 3.2 3.2 0.00 0.00 0.00 58 1005.2
20260505191520 16 327 1.6 3.2 0.00 0.00 0.00 57 1005.2
20260505191032 17 0.0 0.0 0.00 0.00 0.00 56 1005.1
20260505190544 17 326 0.0 1.6 0.00 0.00 0.00 56 1005.1
20260505190040 17 325 1.6 1.6 0.00 0.00 0.00 55 1005.0
20260505185520 17 327 1.6 1.6 0.00 0.00 0.00 55 1005.0
20260505185032 17 325 1.6 3.2 0.00 0.00 0.00 54 1005.1
20260505184544 17 327 0.0 1.6 0.00 0.00 0.00 55 1005.1
20260505184024 17 0.0 0.0 0.00 0.00 0.00 56 1005.0
20260505183536 17 0.0 0.0 0.00 0.00 0.00 56 1005.0
20260505183016 17 0.0 0.0 0.00 0.00 0.00 56 1004.9
20260505182528 18 0.0 0.0 0.00 0.00 0.00 56 1005.0
20260505182040 18 316 0.0 1.6 0.00 0.00 0.00 55 1004.9
20260505181520 18 0.0 0.0 0.00 0.00 0.00 54 1004.7
20260505181032 19 0.0 0.0 0.00 0.00 0.00 53 1004.8
20260505180544 19 0.0 0.0 0.00 0.00 0.00 51 1004.7
20260505180040 20 0.0 0.0 0.00 0.00 0.00 50 1004.7
20260505175520 20 0.0 0.0 0.00 0.00 0.00 49 1004.7
20260505175032 20 0.0 0.0 0.00 0.00 0.00 47 1004.6
20260505174544 21 0.0 0.0 0.00 0.00 0.00 46 1004.6
20260505174024 21 0.0 0.0 0.00 0.00 0.00 45 1004.5
20260505173536 22 0.0 0.0 0.00 0.00 0.00 44 1004.6
20260505173016 22 0.0 0.0 0.00 0.00 0.00 42 1004.7
20260505172528 22 0.0 0.0 0.00 0.00 0.00 40 1004.6
20260505172024 23 0.0 0.0 0.00 0.00 0.00 39 1004.7
20260505171536 23 0.0 0.0 0.00 0.00 0.00 38 1004.7
20260505171020 24 342 0.0 1.6 0.00 0.00 0.00 36 1004.7
20260505170528 24 334 0.0 1.6 0.00 0.00 0.00 35 1004.7
20260505170040 25 309 0.0 1.6 0.00 0.00 0.00 34 1004.7